Lapse_Rate
1.7 1.6 1.5 1.5 1.1 1.0 1.1 0.9 0.7 0.6 0.5 0.4 0.0 -0.3 -0.3 -0.4 -0.3 2.1 2.6 4.8 3.8 4.6 4.8 3.7 3.8 3.0 4.4 5.0 5.0 4.1 6.5 6.5 6.5 6.5 6.5 5.6 6.5 5.9 5.5 6.0 5.5 6.7 5.5 5.7 2.3
1.8 1.6 1.6 1.4 1.2 1.0 1.2 1.1 0.8 0.9 1.0 0.4 0.3 0.1 0.0 -0.2 0.0 3.2 6.1 6.0 5.8 5.1 4.2 3.4 3.4 3.7 3.2 4.8 4.1 5.8 6.5 6.5 6.5 6.5 6.5 6.0 5.7 5.7 6.0 5.9 5.7 5.3 6.1 4.7 1.3
1.7 1.4 1.3 1.2 1.2 1.3 1.2 1.1 0.9 1.1 1.0 0.8 0.3 0.1 0.1 -0.7 3.8 5.6 5.7 5.9 6.2 5.5 5.1 5.6 5.6 5.7 6.0 5.5 5.6 6.0 6.5 6.5 6.4 5.7 5.2 6.0 5.8 5.6 5.7 6.5 5.5 5.7 5.2 5.3 2.7
1.8 1.2 0.9 1.1 1.2 1.2 1.3 1.2 1.3 1.1 0.7 0.9 0.3 0.1 -0.0 -0.9 6.5 5.5 5.6 5.5 6.4 6.3 4.6 4.7 5.0 5.5 6.4 6.5 5.2 6.5 6.0 6.2 5.7 5.5 5.8 6.4 5.6 6.2 6.2 6.5 6.2 5.6 5.2 6.3 3.5
1.8 1.5 1.1 1.1 1.0 1.1 1.3 1.3 1.4 1.4 1.1 1.0 0.6 0.5 -0.4 3.6 5.4 4.9 4.5 4.8 5.5 5.4 4.8 5.6 5.6 5.8 6.5 6.4 5.6 6.5 6.5 5.8 5.8 5.9 5.3 5.8 6.2 6.4 6.3 6.8 6.8 6.4 6.0 4.8 4.4
1.6 1.8 1.4 1.5 1.2 1.3 1.4 1.6 1.6 1.5 1.2 1.0 1.0 1.1 0.5 6.3 5.0 3.9 3.2 4.5 5.0 5.6 6.2 6.7 6.9 7.0 6.3 6.4 6.5 5.9 6.3 6.2 6.0 6.1 6.2 6.4 6.4 5.6 6.4 6.3 6.3 6.6 6.4 4.9 4.2
2.0 2.0 1.8 1.6 1.4 1.6 1.6 1.7 1.7 1.6 1.2 1.8 2.1 1.7 0.8 6.1 4.3 3.5 3.0 5.3 5.3 6.2 6.6 7.1 7.1 7.0 6.4 6.5 6.1 6.0 6.5 6.5 6.2 5.7 6.3 5.9 6.5 6.5 6.4 6.1 6.3 6.5 6.6 6.3 4.4
2.6 2.6 2.2 1.6 1.4 1.2 1.6 2.0 1.8 1.6 1.8 2.2 2.9 1.8 2.6 4.0 3.9 3.0 4.0 5.4 5.2 4.9 6.1 6.7 6.6 6.6 6.1 5.9 6.0 6.5 6.5 6.5 6.5 6.5 5.9 5.9 6.5 6.5 5.7 5.6 5.6 6.3 6.5 6.5 6.1
2.8 2.7 2.5 2.3 1.4 1.3 1.6 2.2 1.9 2.5 2.3 2.8 2.5 2.7 4.9 4.7 4.8 5.3 4.9 6.0 6.1 5.9 6.0 7.3 6.7 6.0 6.3 6.5 6.5 6.5 6.5 6.5 6.5 6.5 6.5 6.5 6.5 6.5 5.7 6.5 6.5 6.7 6.7 6.9 6.7
2.9 3.1 2.6 2.7 2.0 1.7 1.7 2.0 3.0 3.4 3.6 3.9 4.4 4.6 4.6 5.7 5.2 4.8 5.0 5.3 6.1 5.6 5.5 5.8 3.9 6.5 6.5 6.5 6.5 6.5 6.5 6.5 6.5 6.5 6.5 6.5 6.5 6.5 6.6 6.4 6.5 6.5 6.6 6.9 7.0
3.6 3.4 3.1 3.0 2.6 2.3 1.6 2.3 3.6 4.7 4.2 4.7 5.1 4.8 4.0 3.6 4.1 4.8 5.1 5.7 6.1 6.0 6.5 6.2 6.5 6.5 6.5 6.5 6.5 6.5 6.5 6.5 6.5 6.5 6.5 6.5 6.5 6.5 6.5 6.5 6.4 6.4 6.5 6.7 6.9
4.4 3.6 3.4 3.2 2.8 3.0 0.8 3.5 5.0 5.0 5.2 3.7 3.9 3.5 3.3 3.9 5.0 5.0 5.2 6.1 6.2 6.5 6.5 6.5 6.5 6.5 6.5 6.5 6.5 6.5 6.5 6.5 6.5 6.5 6.5 6.5 6.5 6.5 6.5 6.5 6.5 6.5 6.5 6.5 6.7
4.8 3.9 3.6 3.2 3.6 3.0 3.4 4.6 4.3 4.6 4.7 5.5 4.6 4.7 5.0 4.3 5.5 4.8 5.6 6.2 6.5 6.5 6.5 6.5 6.5 6.5 6.5 6.5 6.5 6.5 6.5 6.5 6.5 6.5 6.5 6.5 6.5 6.5 6.5 6.5 6.6 6.8 6.9 6.9 6.7
5.4 4.6 3.7 3.2 4.5 2.9 4.6 5.0 4.4 4.4 6.5 6.5 6.2 6.2 5.1 5.3 6.3 5.5 5.9 6.5 6.5 6.5 6.5 6.5 6.5 6.5 6.5 6.5 6.5 6.5 6.5 6.5 6.5 6.5 6.5 6.5 6.5 6.5 6.5 6.5 6.5 6.4 6.5 6.7 6.6
5.6 4.0 3.9 3.6 2.8 4.1 5.1 4.0 4.5 4.1 6.5 6.5 6.4 7.2 5.9 6.4 6.6 6.6 6.5 6.3 6.5 6.5 6.5 6.5 6.5 6.5 6.5 6.5 6.5 6.5 6.5 6.5 6.5 6.5 6.5 6.5 6.5 6.5 6.5 6.5 6.5 6.5 6.4 6.4 6.4
5.0 4.1 3.7 3.7 2.3 4.4 4.2 4.2 4.0 6.5 6.5 6.5 6.4 6.5 6.5 6.1 6.4 6.0 5.6 5.9 6.4 6.5 6.5 6.5 6.1 6.5 6.5 6.5 6.5 6.5 6.5 6.5 6.5 6.5 6.5 6.5 6.5 6.5 6.5 6.5 6.5 6.5 6.4 5.6 4.5
5.4 5.1 4.5 3.9 4.6 4.2 3.8 4.3 6.5 6.5 6.5 6.5 6.5 6.5 6.5 6.5 6.5 6.5 6.5 6.5 6.5 6.5 6.5 6.5 6.5 6.5 6.4 6.5 6.5 6.5 6.5 6.5 6.5 6.5 6.5 6.5 6.5 6.5 6.5 6.5 6.5 6.5 6.6 7.1 7.2
5.8 5.2 4.4 4.3 4.0 4.2 4.2 6.2 6.5 6.5 6.5 6.5 6.5 6.5 6.5 6.5 6.5 6.5 6.5 6.5 6.5 6.5 6.5 6.5 6.5 6.5 6.5 6.5 6.5 6.5 6.5 6.5 6.5 6.5 6.5 6.5 6.5 6.5 6.5 6.5 6.9 7.0 7.1 7.4 7.2
5.4 3.0 4.3 4.2 4.3 3.9 4.5 6.5 6.5 6.5 6.5 6.5 6.5 6.5 6.5 6.5 6.5 6.5 6.5 6.5 6.5 6.5 6.5 6.5 6.5 6.5 6.5 6.5 6.5 6.5 6.5 6.5 6.5 6.5 6.5 6.5 6.5 6.5 6.5 6.5 6.5 6.7 7.0 7.1 7.4
4.3 4.4 5.1 4.6 4.8 4.3 6.1 6.5 6.5 6.5 6.5 6.5 6.5 6.5 6.5 6.5 6.5 6.5 6.5 6.5 6.5 6.5 6.3 6.5 6.5 6.5 6.5 6.5 6.5 6.5 6.5 6.5 6.5 6.5 6.5 6.5 6.5 6.5 6.5 6.5 6.5 6.5 6.6 7.1 7.6
4.7 5.2 5.3 5.0 4.8 4.7 6.5 6.5 6.5 6.3 6.3 6.5 6.5 6.5 6.5 6.5 6.5 6.5 6.5 6.5 6.5 6.5 6.4 6.5 6.5 6.5 6.5 6.5 6.5 6.5 6.5 6.5 6.5 6.5 6.5 6.5 6.5 6.5 6.5 6.5 6.5 6.5 7.2 7.0 7.3
4.2 6.5 5.1 5.1 5.6 5.9 6.5 6.5 6.5 6.5 6.4 6.5 6.5 6.5 6.5 6.5 6.5 6.5 6.5 6.5 6.2 6.4 6.5 6.5 6.5 6.5 6.5 6.5 6.5 6.5 6.5 6.5 6.5 6.5 6.5 6.5 6.5 6.5 6.5 6.5 6.6 6.9 7.1 7.3 7.4
5.2 6.0 5.5 6.0 6.5 6.5 6.5 6.5 6.5 6.5 6.5 6.5 6.5 6.5 6.5 6.5 6.5 6.5 6.5 6.3 5.9 6.4 6.5 6.5 6.5 6.5 6.5 6.5 6.5 6.5 6.5 6.5 6.5 6.5 6.5 6.5 6.5 6.5 6.5 6.5 7.1 7.0 6.9 6.9 7.0
3.7 6.5 5.5 5.3 5.1 6.5 6.5 6.5 6.5 6.2 6.4 6.1 6.5 6.4 6.5 6.5 6.5 6.5 6.5 6.5 5.6 6.4 6.9 6.4 6.5 6.5 6.5 6.5 6.5 6.5 6.5 6.5 6.5 6.5 6.5 6.5 6.5 6.5 6.5 6.5 6.5 6.6 6.5 6.9 6.9
2.9 5.9 5.4 6.5 6.4 6.5 6.5 6.5 6.5 6.5 6.4 6.1 6.5 6.5 6.5 6.5 6.5 6.5 6.5 6.5 6.4 6.7 6.4 6.5 6.5 6.5 6.5 6.5 6.5 6.5 6.5 6.5 6.5 6.5 6.5 6.5 6.5 6.5 6.5 6.5 6.6 6.5 6.6 6.7 6.8
3.3 4.7 4.6 5.9 5.7 6.5 6.5 6.5 6.5 6.5 6.5 6.5 6.5 6.5 6.5 6.5 6.5 6.5 6.5 6.5 6.5 6.5 6.5 6.5 6.5 6.5 6.5 6.5 6.5 6.5 6.5 6.5 6.5 6.5 6.5 6.5 6.5 6.5 6.9 6.7 6.9 7.0 6.9 6.9 6.9
2.7 3.5 3.4 6.4 6.5 6.5 6.5 6.5 6.5 6.4 6.2 5.9 6.4 6.5 6.5 6.5 6.1 5.0 4.8 5.4 6.3 6.5 6.5 6.5 6.5 6.5 6.5 6.5 6.5 6.5 6.5 6.5 6.5 6.5 6.5 6.5 6.5 6.5 6.5 6.6 6.8 7.0 7.1 7.1 7.2
Wind_Speed
6 4 3 3 2 4 7 8 11 12 13 15 17 18 20 21 20 3 6 4 5 12 8 5 7 7 4 3 1 3 1 3 4 5 4 6 6 2 4 4 3 3 2 6 1
7 5 4 3 2 3 6 8 10 12 13 14 16 16 17 18 3 7 5 9 9 10 6 7 6 6 3 2 2 3 3 4 6 4 7 7 10 11 7 14 7 10 2 7 4
9 7 5 3 3 4 5 8 9 11 13 14 16 17 19 8 2 1 10 11 9 5 2 1 2 3 2 2 2 2 5 3 2 5 6 5 11 6 10 25 7 13 6 3 4
10 9 6 4 3 4 5 7 10 11 12 15 16 18 18 1 2 3 10 11 8 6 7 5 5 3 2 3 4 6 5 3 5 7 8 9 8 14 21 29 8 12 10 4 8
11 8 6 5 3 4 5 7 9 11 13 13 14 16 5 4 1 2 10 10 6 6 6 4 5 3 2 3 7 6 3 7 9 11 8 9 11 17 32 15 16 13 16 9 9
12 10 7 6 3 5 6 8 9 11 12 11 11 11 4 2 2 2 9 5 3 4 4 4 3 1 1 3 2 5 13 14 9 11 11 16 20 10 10 11 16 17 20 13 12
12 10 8 5 4 7 8 9 11 11 9 7 6 3 3 3 1 8 5 2 1 1 1 1 3 3 2 5 4 5 12 16 8 5 5 6 17 13 17 16 24 21 21 16 12
12 10 7 5 4 6 10 13 14 14 9 3 3 2 4 1 7 6 1 4 3 3 2 3 4 2 4 3 7 6 5 7 1 5 6 4 27 7 6 6 12 19 17 18 17
13 10 7 5 4 7 9 13 15 7 5 6 3 1 4 8 2 3 4 3 3 1 2 3 4 4 2 2 4 3 7 7 10 4 6 7 17 3 15 18 20 19 20 19 20
14 10 7 6 6 8 12 7 9 11 8 3 1 1 4 1 3 5 2 2 2 3 4 4 4 2 2 3 4 5 7 6 12 6 11 18 25 31 24 20 24 20 22 23 23
13 9 5 6 7 8 5 5 4 3 2 4 1 1 5 6 2 3 3 2 2 4 1 2 0 6 9 10 10 8 11 15 22 21 24 21 24 23 29 20 24 20 21 25 24
12 7 5 5 5 7 4 4 3 3 1 4 4 5 4 1 2 4 3 1 2 4 3 2 8 9 6 7 10 12 11 22 22 23 18 25 29 26 24 29 23 23 23 25 26
13 7 4 4 6 2 3 5 3 4 4 1 4 3 3 5 2 4 5 0 2 4 4 5 6 4 4 4 10 16 10 19 19 23 25 23 28 31 20 22 29 27 29 27 27
14 10 4 2 1 2 1 2 4 3 4 4 3 2 3 3 2 5 3 2 0 4 3 6 4 3 2 6 8 12 6 14 17 12 11 6 15 29 22 23 26 20 23 25 27
14 10 7 3 4 4 3 4 3 3 0 4 2 3 1 3 1 2 1 2 3 4 5 8 4 4 5 7 5 10 9 12 14 14 10 19 6 17 16 23 21 20 22 24 23
15 11 9 5 1 2 3 7 3 5 3 1 2 2 3 4 2 5 4 3 2 3 4 10 3 4 6 6 11 14 10 11 4 2 5 9 6 17 6 9 11 11 10 8 15
14 10 7 6 4 6 5 3 4 4 1 2 3 3 2 2 3 3 3 5 3 5 6 8 4 3 4 4 3 3 4 4 5 2 7 7 10 12 21 21 15 3 15 17 17
14 10 2 3 4 7 3 4 2 4 4 2 3 3 3 5 3 5 1 2 3 2 4 5 7 2 3 5 7 9 5 2 5 5 17 17 6 7 14 20 18 17 18 20 19
14 2 2 3 8 1 4 2 4 3 6 5 4 3 3 3 2 3 1 1 1 4 3 4 6 6 13 15 4 1 4 5 5 9 6 5 5 1 14 18 17 18 20 18 18
3 4 2 8 12 4 3 3 3 3 6 3 3 3 2 2 2 3 2 2 1 1 3 4 7 6 6 3 4 2 5 2 1 4 5 3 5 12 10 14 16 17 17 16 16
3 3 1 10 3 3 3 3 4 4 5 3 4 3 3 2 2 1 3 3 0 4 2 1 1 9 9 1 5 4 3 3 4 4 4 5 3 13 14 13 14 16 15 15 16
3 3 1 1 2 1 3 4 5 4 3 3 4 3 3 2 0 2 3 3 3 2 5 2 3 6 12 14 3 1 4 3 3 4 4 3 4 11 14 15 14 14 14 15 16
3 3 1 2 3 1 2 3 3 3 3 3 3 3 1 2 1 3 3 2 4 5 1 3 2 5 9 4 4 6 6 7 8 4 2 4 3 9 14 15 14 13 14 13 14
3 4 2 1 1 3 5 4 4 4 3 5 4 4 3 1 3 3 3 2 6 2 4 1 3 6 5 8 5 13 11 12 4 3 6 4 5 12 14 15 16 16 14 13 14
2 2 4 3 3 4 3 3 5 4 3 4 3 4 3 3 3 3 2 4 3 4 3 2 4 3 9 13 5 13 18 18 10 12 4 7 8 10 11 11 10 11 14 14 16
3 4 2 2 5 6 2 2 5 4 4 2 5 4 5 4 5 3 2 1 3 3 2 1 3 2 5 6 5 9 14 16 15 14 5 7 8 7 5 9 16 17 15 16 12
0 2 3 3 3 4 3 5 5 7 5 4 4 3 4 5 4 7 8 6 6 1 2 1 2 2 4 5 7 3 9 8 8 16 7 9 4 6 11 16 16 15 16 16 16
Wind_Direction
215 231 256 289 334 352 352 350 345 345 348 342 341 342 335 339 327 6 38 279 300 328 339 335 31 4 41 351 341 121 299 226 224 180 250 293 294 271 301 243 253 226 319 297 204
215 225 240 254 302 342 347 343 342 341 342 340 336 335 330 337 321 51 330 347 340 346 10 27 1 6 22 5 319 165 194 239 202 211 276 292 302 313 298 286 283 286 288 297 149
215 202 211 236 285 328 342 338 338 338 339 337 336 332 330 333 126 138 340 351 360 8 246 121 40 58 33 355 252 245 227 310 289 314 337 326 312 298 295 277 223 277 300 292 212
215 199 192 229 277 319 332 335 333 332 337 334 337 334 331 239 263 223 349 348 7 49 51 24 22 50 12 314 332 324 266 317 301 353 340 320 304 292 278 268 305 288 273 265 224
209 214 209 226 259 301 319 328 329 326 331 334 339 341 357 48 173 322 343 352 29 33 45 46 53 45 355 322 322 231 282 309 311 312 290 288 282 273 267 311 289 272 272 242 231
202 216 219 244 272 300 318 323 321 322 323 334 341 345 23 107 146 340 336 346 50 46 36 45 56 339 234 283 219 305 302 296 301 289 259 263 265 239 271 298 273 263 262 253 232
207 219 220 242 285 311 320 317 310 306 309 329 343 15 44 155 333 328 320 291 137 131 315 167 140 59 347 286 258 271 302 307 242 239 257 275 274 237 274 266 278 275 273 271 243
208 219 226 230 293 312 320 317 310 296 276 298 317 64 251 208 299 308 222 296 265 223 187 259 132 180 178 277 346 342 290 339 204 322 259 80 276 290 282 315 294 299 286 267 253
201 209 227 251 281 300 321 321 326 321 173 150 80 106 278 326 329 321 197 251 309 359 285 270 139 193 17 57 3 300 276 271 314 144 270 177 289 318 344 319 306 305 297 292 272
193 207 213 260 291 321 332 327 116 79 89 106 126 85 272 78 329 316 277 269 273 354 23 65 57 63 34 95 250 259 271 276 286 263 264 279 275 286 288 277 275 278 288 287 282
187 203 216 271 309 337 10 88 52 25 278 194 213 288 326 306 292 291 270 27 43 66 93 16 173 214 221 213 242 260 269 272 270 280 291 282 278 276 287 275 272 268 266 276 273
167 196 223 270 304 325 116 154 161 171 286 201 265 293 259 146 326 303 101 18 197 270 128 28 241 242 222 216 240 253 259 265 275 276 276 280 284 277 267 269 263 267 260 258 272
158 176 232 284 310 83 171 147 122 92 100 250 202 209 202 145 215 276 158 234 257 325 204 197 236 167 187 236 252 257 245 268 266 294 287 278 277 281 272 255 265 257 253 249 253
165 171 191 256 283 156 111 19 118 91 86 191 230 247 126 172 306 214 215 162 347 262 289 237 275 235 219 234 214 279 224 269 276 287 286 39 294 279 285 273 264 256 244 246 243
174 159 184 191 144 141 169 131 133 58 248 154 155 135 112 115 319 317 297 84 214 238 98 262 264 234 230 234 166 239 262 278 270 272 306 288 254 284 273 282 281 268 247 243 226
158 158 148 126 55 118 124 118 61 52 197 139 72 45 73 22 6 317 6 25 229 295 218 259 255 225 226 247 219 256 295 261 246 200 265 291 199 289 306 274 274 327 67 78 104
154 160 165 141 157 141 145 69 62 149 139 113 110 75 113 359 344 45 340 12 53 355 331 309 269 261 184 243 260 93 13 324 341 332 259 340 305 265 297 293 273 31 80 72 70
151 147 154 153 137 151 91 67 156 132 96 129 104 107 101 34 17 335 282 8 37 46 302 337 326 311 131 225 293 296 157 232 274 302 305 308 248 309 355 57 60 65 72 70 60
138 73 84 214 170 59 81 107 184 153 131 138 105 90 32 44 139 357 263 211 23 38 34 314 271 310 303 283 185 47 205 207 270 266 278 259 282 251 36 39 50 59 55 56 59
137 137 173 146 149 71 89 149 114 125 126 113 113 124 132 268 6 68 346 236 334 109 150 269 297 288 324 353 333 209 312 332 243 293 283 311 316 346 29 42 41 48 48 54 56
128 99 38 127 78 65 162 163 119 140 128 120 134 119 141 145 239 234 246 286 171 310 333 231 206 298 312 100 290 324 338 309 268 224 306 318 33 353 5 33 53 50 46 49 51
105 95 16 85 112 173 142 175 120 143 97 86 103 97 127 108 6 257 237 221 167 151 342 300 288 290 286 291 230 288 295 272 273 318 261 246 66 350 10 13 23 35 39 46 52
95 105 340 159 146 158 205 159 118 117 115 115 99 106 146 128 335 219 261 274 358 27 329 340 302 312 337 9 59 305 300 278 264 249 285 312 16 1 21 16 22 26 30 32 33
111 116 23 45 105 170 137 128 106 83 76 77 105 82 81 14 251 252 281 309 333 285 258 297 253 182 221 245 326 339 1 344 293 274 322 54 65 24 18 17 15 21 22 22 28
34 168 176 186 228 165 103 115 117 113 87 92 64 112 146 228 240 206 257 312 315 63 56 80 267 227 256 282 197 39 12 12 17 335 27 36 69 31 21 14 11 23 30 25 19
129 120 48 99 129 110 70 127 130 115 117 114 117 180 185 208 209 241 201 212 265 345 6 356 272 310 279 196 231 59 18 30 19 2 51 79 66 39 40 43 29 20 28 23 11
355 60 100 332 103 103 177 145 153 116 47 96 150 166 236 245 207 219 207 203 221 308 306 268 276 316 271 349 307 51 5 24 39 25 2 29 39 7 38 41 34 26 23 14 8